#timestamp,LO_Frequency,Hit,StdDev 
1510887615.6,286047000.2,N
1510887635.5,286047000.5,N
1510887655.3,286047000.6,N
1510887675.1,286047000.7,N
1510887695.9,286046999.3,N
1510887715.7,286046998.8,N
1510887735.6,286046998.1,N
1510887755.4,286047000.5,N
1510887775.2,286047001.2,N
1510887795.1,286046999.0,N
1510887796.0,286046999.0,N
1510887815.8,286047001.0,N
1510887835.6,286047000.1,N
1510887855.5,286046999.9,N
1510887875.3,286047000.4,N
1510887895.2,286047002.2,N
1510887915.9,286047000.0,N
1510887935.7,286047001.6,N
1510887955.6,286047001.7,N
1510887975.4,286047002.1,N
1510887995.2,286046998.1,N
1510888015.1,286046998.7,N
1510888016.0,286046998.7,N
1510888035.8,286046998.4,N
1510888055.7,286046998.8,N
1510888075.5,286046996.5,Y
1510888095.3,286047000.8,P
1510888115.2,286047000.0,N
1510888135.0,286047000.3,N
1510888135.9,286047000.3,N
1510888155.8,286047000.7,N
1510888175.6,286046998.3,Y
1510888195.4,286046999.3,P
1510888215.3,286046999.3,N
1510888235.1,286046996.5,P
1510888255.8,286046996.6,N
1510888275.7,286046996.6,N
1510888295.5,286046999.3,N
1510888315.4,286046998.4,N
1510888335.2,286047000.1,N
1510888355.0,286047002.5,N
1510888355.9,286047002.5,N
1510888375.8,286047001.7,N
1510888395.6,286047001.3,N
1510888415.4,286047000.1,N
1510888435.3,286046998.4,N
1510888455.1,286046996.6,N
1510888475.9,286046998.8,N
1510888495.7,286047000.5,N
1510888515.5,286047000.6,N
1510888535.4,286046998.7,N
1510888555.2,286047000.4,N
1510888575.1,286047000.3,N
1510888576.0,286047000.3,N
1510888595.8,286047001.2,N
1510888615.6,286047000.8,N
1510888635.5,286047002.4,N
1510888655.3,286047003.9,N
1510888675.2,286047002.1,N
1510888695.9,286047002.7,N
1510888715.7,286047002.3,N
1510888735.6,286047002.0,N
1510888755.4,286046999.8,N
1510888775.2,286047001.0,N
1510888795.1,286047000.8,N
1510888796.0,286047000.8,N
1510888815.8,286046999.8,N
1510888835.7,286047000.1,N
1510888855.5,286047002.5,N
1510888875.3,286047001.5,N
1510888895.2,286047001.7,N
1510888915.0,286047003.3,N
1510888915.9,286047003.3,N
1510888935.7,286047003.3,N
1510888955.6,286047001.7,N
1510888975.4,286047004.0,N
1510888995.3,286047000.1,N
1510889015.1,286046999.8,N
1510889016.0,286046999.8,N
1510889035.8,286047002.8,N
1510889055.7,286047004.1,N
1510889075.5,286047004.2,Y
1510889095.4,286047001.8,P
1510889115.2,286047001.6,P
1510889135.0,286047004.4,P
1510889135.9,286047004.4,Y
1510889155.8,286047000.2,P
1510889175.6,286047001.0,N
1510889195.4,286047000.4,N
1510889215.3,286047000.1,N
1510889235.1,286047000.4,N
1510889255.9,286046998.6,N
1510889275.7,286046999.6,N
1510889295.5,286046999.1,N
1510889315.4,286046999.2,N
1510889335.2,286046999.0,N
1510889355.1,286046999.4,N
1510889356.0,286046999.4,N
1510889375.8,286046999.4,N
1510889395.6,286047001.0,N
1510889415.5,286047000.8,N
1510889435.3,286047000.5,N
1510889455.2,286046998.5,N
1510889475.9,286047001.0,N
1510889495.7,286047000.2,N
1510889515.6,286047000.1,N
1510889535.4,286047000.3,N
1510889555.2,286046999.8,N
1510889575.1,286047000.7,N
1510889576.0,286047000.7,N
1510889595.8,286046998.5,N
1510889615.7,286047001.1,N
1510889635.5,286047000.4,N
1510889655.3,286047002.7,N
1510889675.2,286047001.0,N
1510889695.0,286047000.6,N
1510889695.9,286047000.6,N
1510889715.8,286047002.3,N
1510889735.6,286047000.0,N
1510889755.4,286047002.8,N
1510889775.3,286046999.7,N
1510889795.1,286047000.0,N
1510889815.8,286047000.2,N
1510889835.7,286047001.5,N
1510889855.5,286047002.5,N
1510889875.4,286047003.5,Y
1510889895.2,286047000.3,P
1510889915.0,286047000.5,P
1510889915.9,286047000.5,P
1510889935.8,286046999.2,Y
1510889955.6,286046997.0,P
1510889975.5,286046999.5,N
1510889995.3,286046996.5,N
1510890015.1,286046996.5,N
1510890035.9,286046997.1,N
1510890055.7,286046996.6,N
1510890075.5,286046997.0,N
1510890095.4,286046996.6,N
1510890115.2,286046997.4,N
1510890135.1,286046996.8,N
1510890136.0,286046996.8,N
1510890155.8,286046995.5,Y
1510890175.6,286046998.5,P
1510890195.5,286047000.7,N
1510890215.3,286046999.1,N
1510890235.2,286046999.1,N
1510890255.9,286046997.4,N
1510890275.7,286046996.5,Y
1510890295.6,286047000.8,P
1510890315.4,286046999.8,N
1510890335.2,286047000.6,N
1510890355.1,286046998.1,N
1510890356.0,286046998.1,N
1510890375.8,286047001.0,N
1510890395.7,286047002.2,N
1510890415.5,286047001.9,N
1510890435.3,286046999.7,N
1510890455.2,286047004.2,N
1510890475.0,286047003.1,N
1510890475.9,286047003.1,N
1510890495.8,286047003.8,N
1510890515.6,286047003.3,N
1510890535.4,286047003.1,N
1510890555.3,286047001.9,N
1510890575.1,286047001.7,N
1510890595.8,286047002.6,N
1510890615.7,286047001.8,N
1510890635.5,286046999.8,N
1510890655.4,286046999.8,N
1510890675.2,286047001.8,N
1510890695.0,286047004.4,N
1510890695.9,286047004.4,N
1510890715.8,286047002.2,N
1510890735.6,286047002.0,N
1510890755.4,286047002.0,N
1510890775.3,286047004.3,N
1510890795.1,286047002.0,N
1510890815.9,286047001.7,N
1510890835.7,286047002.3,N
1510890855.5,286047001.9,N
1510890875.4,286047002.0,N
1510890895.2,286047002.1,N
1510890915.0,286047002.4,N
1510890915.9,286047002.4,N
1510890935.8,286046999.9,N
1510890955.6,286047000.6,N
1510890975.5,286047000.9,N
1510890995.3,286047002.5,N
1510891015.1,286047001.9,N
1510891035.9,286047002.3,N
1510891055.7,286047002.8,N
1510891075.5,286047000.9,N
1510891095.4,286047000.9,N
1510891115.2,286046999.3,N
1510891135.1,286046998.5,N
1510891136.0,286046998.5,N
1510891155.8,286046998.4,N
1510891175.6,286046998.5,N
1510891195.5,286047000.8,N
